Tracking 29528 objects as of 15-Sep-2024
HD Live streaming from Space Station
objects crossing your sky now

ONEWEB-0039

Track ONEWEB-0039 now!
10-day predictions
ONEWEB-0039 is classified as:


NORAD ID: 45146
Int'l Code: 2020-008R
Perigee: 1,227.6 km
Apogee: 1,230.1 km
Inclination: 87.9 °
Period: 109.9 minutes
Semi major axis: 7599 km
RCS: Unknown
Launch date: February 6, 2020
Source: United Kingdom (UK)
Launch site: TYURATAM MISSILE AND SPACE COMPLEX (TTMTR)
Your satellite tracking list
Your tracking list is empty




NASA's NSSDC Master Catalog

Two Line Element Set (TLE):
1 45146U 20008R   24258.79853934  .00000570  00000-0  15975-2 0  9990
2 45146  87.8988 163.7018 0001600  61.1606 298.9682 13.10375840225075
Source of the keplerian elements: AFSPC